Regional Weather Roundup
Issued by NWS Glasgow, MT

Home | Current Version | Previous Version | Text Only | Print | Product List | Glossary On
Versions: 1 2 3 4 5 6 7 8 9 10 11 12 13 14 15 16 17 18 19 20 21 22 23 24 25 26 27 28 29 30 31 32 33 34 35 36 37 38 39 40 41 42 43 44 45 46 47 48 49 50
274
ASUS45 KGGW 190015
RWRGGW
HOURLY REGIONAL WEATHER ROUNDUP FOR NORTHEAST MONTANA
NATIONAL WEATHER SERVICE GLASGOW MONTANA
500 PM MST THU JAN 18 2018

NOTE: "FAIR" INDICATES FEW OR NO CLOUDS BELOW 12,000 FEET WITH NO
SIGNIFICANT WEATHER AND/OR OBSTRUCTIONS TO VISISBILITY.

NORTHEAST MONTANA


CITY           SKY/WX    TMP DP  RH WIND       PRES   REMARKS
GLASGOW        CLOUDY    33  26  75 CALM      29.64F
6HR MIN TEMP:  27; 6HR MAX TEMP:  34;

PLENTYWOOD       N/A     36  29  75 S3          N/A
WOLF POINT     CLOUDY    31  22  69 SW8       29.66F
JORDAN           N/A     38  31  76 W9        29.67S
WINNETT          N/A     40  30  67 S7G20       N/A
SIDNEY         CLOUDY    35  28  75 S7        29.67S
GLENDIVE       CLOUDY    34  27  75 S3        29.70R
MALTA            N/A     32  28  85 SW5         N/A
SCOBEY           N/A     38  25  60 CALM      29.61F

FORT PECK REPORTS


CITY           SKY/WX    TMP DP  RH WIND       PRES   REMARKS
FORT PECK        N/A     32  27  81 S5          N/A
THE PINES        N/A     41  28  60 W3          N/A

SOUTHEAST MONTANA


CITY           SKY/WX    TMP DP  RH WIND       PRES   REMARKS
BILLINGS       CLOUDY    44  26  49 W16       29.73S
MILES CITY     CLOUDY    33  26  75 S10       29.70S
BAKER          CLOUDY    42  28  57 SW14      29.71F
LIVINGSTON     CLOUDY    51  31  46 SW37G46   29.70F

CENTRAL MONTANA


CITY           SKY/WX    TMP DP  RH WIND       PRES   REMARKS
HAVRE          CLOUDY    37  32  82 SW15      29.63F
LEWISTOWN      CLOUDY    39  32  76 S3        29.70R
GREAT FALLS    CLOUDY    43  31  62 SW14      29.69S
CUT BANK       CLOUDY    36  31  82 SW7       29.63S
HELENA         CLOUDY    40  33  76 CALM      29.73S
BUTTE          CLOUDY    36  30  79 NW13      29.72S
BOZEMAN        MOCLDY    40  30  67 S9        29.72F

WESTERN MONTANA


CITY           SKY/WX    TMP DP  RH WIND       PRES   REMARKS
MISSOULA       LGT RAIN  36  34  92 N5        29.78S FOG
KALISPELL      NOT AVBL

NORTH DAKOTA


CITY           SKY/WX    TMP DP  RH WIND       PRES   REMARKS
WILLISTON      CLOUDY    37  28  70 SW13      29.64F
DICKINSON      CLOUDY    37  29  72 SW6       29.65F
MINOT          CLOUDY    39  28  64 SW14      29.58S
BISMARCK       CLOUDY    30  25  81 SE3       29.68F

SOUTHERN SASKATCHEWAN


CITY           SKY/WX    TMP DP  RH WIND       PRES   REMARKS
REGINA         MOCLDY    36  28  75 SW9       29.46F
MOOSE JAW      MOCLDY    43  34  70 W20       29.47R
ESTEVAN        CLOUDY    32  28  86 S5        29.54F
SWIFT CURRENT  CLOUDY    39  32  75 SW17      29.48R





USA.gov is the U.S. government's official web portal to all federal, state and local government web resources and services.